When you browse on this site, cookies collect data to enhance your experience and personalize the content and advertising you see.
Visit our Privacy Policy to learn more. By continuing to use the site, you agree to this use of cookies and data.
  • en Suisse
  • Liste des pays
  • À 7 jours
  • Température de l'eau
  • Carte météo
  • Widgets météo
  • user-avatar
    Se connecter

    Météo par heure à Shеki

    Ce jour, 20 Février, Jeudi

    Heure Température Précipitation Vent Pression Humidité
    00:00 +7°C° 0 mm 0 m/s 733 mmHg 53%
    01:00 +6°C° 0 mm 0 m/s 733 mmHg 54%
    02:00 +6°C° 0 mm 0 m/s 733 mmHg 54%
    03:00 +6°C° 0 mm 0 m/s 733 mmHg 58%
    04:00 +6°C° 0 mm 0 m/s 733 mmHg 58%
    05:00 +6°C° 0 mm 0 m/s 733 mmHg 58%
    06:00 +6°C° 0 mm 0 m/s 733 mmHg 58%
    07:00 +6°C° 0.1 mm 0 m/s 733 mmHg 60%
    08:00 +7°C° 0.1 mm 0 m/s 733 mmHg 62%
    09:00 +7°C° 0.1 mm 0 m/s 734 mmHg 64%
    10:00 +7°C° 0.6 mm 0 m/s 734 mmHg 69%
    11:00 +7°C° 0.6 mm 0 m/s 733 mmHg 75%
    12:00 +7°C° 0.6 mm 0 m/s 733 mmHg 80%
    13:00 +8°C° 0.3 mm 0 m/s 733 mmHg 82%
    14:00 +8°C° 0.3 mm 0 m/s 732 mmHg 84%
    15:00 +8°C° 0.3 mm 0 m/s 732 mmHg 85%
    16:00 +8°C° 0.1 mm 0 m/s 732 mmHg 86%
    17:00 +7°C° 0.1 mm 0 m/s 733 mmHg 87%
    18:00 +8°C° 0.1 mm 1 m/s 733 mmHg 88%
    19:00 +7°C° 0.1 mm 0 m/s 733 mmHg 87%
    20:00 +7°C° 0.1 mm 0 m/s 734 mmHg 86%
    21:00 +7°C° 0.1 mm 0 m/s 734 mmHg 84%
    22:00 +6°C° 0 mm 0 m/s 734 mmHg 84%
    23:00 +7°C° 0 mm 1 m/s 734 mmHg 83%

    Demain, 21 Février, Vendredi

    Heure Température Précipitation Vent Pression Humidité
    00:00 +7°C° 0 mm 1 m/s 734 mmHg 82%
    01:00 +7°C° 0 mm 1 m/s 734 mmHg 83%
    02:00 +5°C° 0 mm 0 m/s 734 mmHg 84%
    03:00 +5°C° 0 mm 0 m/s 734 mmHg 84%
    04:00 +5°C° 0 mm 0 m/s 734 mmHg 84%
    05:00 +5°C° 0 mm 0 m/s 734 mmHg 84%
    06:00 +4°C° 0 mm 0 m/s 734 mmHg 84%
    07:00 +6°C° 0 mm 0 m/s 734 mmHg 81%
    08:00 +7°C° 0 mm 0 m/s 735 mmHg 78%
    09:00 +8°C° 0 mm 0 m/s 735 mmHg 75%
    16:00 +12°C° 0 mm 1 m/s 734 mmHg 65%
    17:00 +11°C° 0 mm 1 m/s 734 mmHg 68%
    18:00 +10°C° 0 mm 1 m/s 735 mmHg 71%
    19:00 +10°C° 0 mm 1 m/s 735 mmHg 72%
    20:00 +8°C° 0 mm 2 m/s 735 mmHg 73%
    21:00 +8°C° 0 mm 2 m/s 736 mmHg 74%
    22:00 +8°C° 0 mm 2 m/s 736 mmHg 78%
    23:00 +7°C° 0 mm 2 m/s 736 mmHg 83%

    Après-demain, 22 Février, Samedi

    Heure Température Précipitation Vent Pression Humidité
    00:00 +7°C° 0 mm 2 m/s 736 mmHg 87%
    01:00 +7°C° 0 mm 1 m/s 736 mmHg 87%
    02:00 +7°C° 0 mm 1 m/s 736 mmHg 87%
    03:00 +7°C° 0 mm 1 m/s 736 mmHg 87%
    04:00 +7°C° 0 mm 1 m/s 736 mmHg 87%
    05:00 +7°C° 0 mm 1 m/s 736 mmHg 87%
    06:00 +7°C° 0 mm 1 m/s 736 mmHg 86%
    07:00 +7°C° 0 mm 1 m/s 736 mmHg 86%
    08:00 +8°C° 0 mm 1 m/s 736 mmHg 86%
    09:00 +8°C° 0 mm 1 m/s 737 mmHg 85%
    10:00 +8°C° 0 mm 1 m/s 736 mmHg 84%
    11:00 +9°C° 0 mm 1 m/s 736 mmHg 83%
    12:00 +9°C° 0 mm 1 m/s 736 mmHg 82%
    13:00 +10°C° 0 mm 1 m/s 736 mmHg 81%
    14:00 +10°C° 0 mm 1 m/s 736 mmHg 79%
    15:00 +10°C° 0 mm 1 m/s 736 mmHg 78%
    16:00 +8°C° 0 mm 0 m/s 736 mmHg 79%
    17:00 +8°C° 0 mm 0 m/s 736 mmHg 80%
    18:00 +8°C° 0 mm 0 m/s 736 mmHg 81%
    19:00 +7°C° 0 mm 0 m/s 736 mmHg 82%
    20:00 +7°C° 0 mm 0 m/s 736 mmHg 82%
    21:00 +6°C° 0 mm 0 m/s 736 mmHg 83%
    22:00 +6°C° 0 mm 0 m/s 736 mmHg 83%
    23:00 +6°C° 0 mm 0 m/s 736 mmHg 82%

    23 Février, Dimanche

    Heure Température Précipitation Vent Pression Humidité
    00:00 +6°C° 0 mm 0 m/s 736 mmHg 82%
    01:00 +7°C° 0 mm 1 m/s 736 mmHg 82%
    02:00 +7°C° 0 mm 1 m/s 736 mmHg 82%
    03:00 +7°C° 0 mm 1 m/s 736 mmHg 82%
    04:00 +7°C° 0 mm 1 m/s 736 mmHg 81%
    05:00 +6°C° 0 mm 1 m/s 736 mmHg 81%
    06:00 +6°C° 0 mm 1 m/s 736 mmHg 81%
    07:00 +7°C° 0 mm 1 m/s 736 mmHg 77%
    08:00 +7°C° 0 mm 0 m/s 736 mmHg 74%
    09:00 +8°C° 0 mm 0 m/s 736 mmHg 71%
    10:00 +10°C° 0 mm 1 m/s 736 mmHg 68%
    11:00 +10°C° 0 mm 2 m/s 736 mmHg 66%
    12:00 +11°C° 0 mm 3 m/s 736 mmHg 63%
    13:00 +11°C° 0 mm 3 m/s 736 mmHg 62%
    14:00 +12°C° 0 mm 3 m/s 735 mmHg 62%
    15:00 +12°C° 0 mm 3 m/s 735 mmHg 62%
    16:00 +11°C° 0 mm 3 m/s 735 mmHg 64%
    17:00 +10°C° 0 mm 2 m/s 735 mmHg 66%
    18:00 +9°C° 0 mm 2 m/s 735 mmHg 69%
    19:00 +9°C° 0 mm 2 m/s 736 mmHg 69%
    20:00 +9°C° 0 mm 1 m/s 736 mmHg 69%
    21:00 +9°C° 0 mm 1 m/s 736 mmHg 69%
    22:00 +8°C° 0 mm 1 m/s 736 mmHg 69%
    23:00 +7°C° 0 mm 2 m/s 735 mmHg 69%

    24 Février, Lundi

    Heure Température Précipitation Vent Pression Humidité
    00:00 +7°C° 0 mm 2 m/s 735 mmHg 69%
    01:00 +6°C° 0 mm 2 m/s 735 mmHg 70%
    02:00 +6°C° 0 mm 2 m/s 735 mmHg 70%
    03:00 +6°C° 0 mm 2 m/s 734 mmHg 70%
    04:00 +6°C° 0 mm 2 m/s 734 mmHg 71%
    05:00 +5°C° 0 mm 2 m/s 734 mmHg 71%
    06:00 +5°C° 0 mm 2 m/s 733 mmHg 71%
    07:00 +6°C° 0 mm 2 m/s 733 mmHg 67%
    08:00 +7°C° 0 mm 2 m/s 733 mmHg 63%
    09:00 +9°C° 0 mm 2 m/s 733 mmHg 59%
    10:00 +10°C° 0 mm 3 m/s 732 mmHg 55%
    11:00 +11°C° 0 mm 3 m/s 731 mmHg 50%
    12:00 +13°C° 0 mm 3 m/s 731 mmHg 46%
    13:00 +13°C° 0 mm 3 m/s 730 mmHg 44%
    14:00 +14°C° 0 mm 3 m/s 729 mmHg 43%
    15:00 +14°C° 0 mm 3 m/s 728 mmHg 42%
    16:00 +14°C° 0 mm 2 m/s 728 mmHg 46%
    17:00 +12°C° 0 mm 1 m/s 728 mmHg 51%
    18:00 +9°C° 0 mm 0 m/s 728 mmHg 56%
    19:00 +10°C° 0 mm 1 m/s 727 mmHg 57%
    20:00 +10°C° 0 mm 1 m/s 727 mmHg 57%
    21:00 +9°C° 0 mm 1 m/s 727 mmHg 58%
    22:00 +9°C° 0 mm 1 m/s 726 mmHg 60%
    23:00 +9°C° 0 mm 1 m/s 725 mmHg 62%

    25 Février, Mardi

    Heure Température Précipitation Vent Pression Humidité
    00:00 +8°C° 0 mm 1 m/s 725 mmHg 63%
    01:00 +8°C° 0 mm 1 m/s 724 mmHg 66%
    02:00 +8°C° 0 mm 1 m/s 723 mmHg 68%
    03:00 +6°C° 0 mm 0 m/s 723 mmHg 70%
    04:00 +7°C° 0 mm 1 m/s 723 mmHg 71%
    05:00 +7°C° 0 mm 1 m/s 723 mmHg 73%
    06:00 +7°C° 0 mm 1 m/s 723 mmHg 74%
    07:00 +5°C° 0.3 mm 3 m/s 723 mmHg 74%
    08:00 +5°C° 0.3 mm 5 m/s 723 mmHg 75%
    09:00 +4°C° 0.3 mm 7 m/s 723 mmHg 76%
    10:00 +6°C° 0 mm 7 m/s 723 mmHg 67%
    11:00 +8°C° 0 mm 7 m/s 723 mmHg 58%
    12:00 +9°C° 0 mm 7 m/s 723 mmHg 50%
    13:00 +10°C° 0 mm 7 m/s 723 mmHg 49%
    14:00 +10°C° 0 mm 8 m/s 723 mmHg 48%
    15:00 +10°C° 0 mm 8 m/s 723 mmHg 48%
    16:00 +9°C° 0.1 mm 7 m/s 724 mmHg 51%
    17:00 +8°C° 0.1 mm 6 m/s 725 mmHg 54%
    18:00 +7°C° 0.1 mm 5 m/s 726 mmHg 57%
    19:00 +6°C° 0.1 mm 5 m/s 727 mmHg 60%
    20:00 +5°C° 0.1 mm 5 m/s 728 mmHg 63%
    21:00 +5°C° 0.1 mm 5 m/s 729 mmHg 66%
    22:00 +5°C° 0 mm 4 m/s 729 mmHg 65%
    23:00 +4°C° 0 mm 4 m/s 730 mmHg 64%
    Voir plus